Starlink 35196

operational
NORAD ID: 66007 Int'l Des: 2025-232 Owner: SPXS Country: US Constellation: starlink
LEOCIRCULAR

About Starlink 35196

Description loading...

Live Position

Loading 3D Globe...

Upcoming Passes

Altitude History

Altitude vs Time

uPlot chart will show altitude changes over time

Two-Line Element Set

1 66007C 25232C 25290.40951389 .00981960 00000+0 13673-2 0 2908
2 66007 53.1575 58.9265 0008802 285.7993 198.3015 16.04146858 14
Epoch: Oct 17, 2025 • Age: 61 hours

Current Status

Altitude 256.5 km
Velocity 7.75 km/s
Sub-Earth Point 29.04°N, 14.91°W
Launch Date Oct 16, 2025
Age 3 days
Type internet

Technical Details

Classification Payload
Mass 575.00 kg
Dry Mass 530.00 kg
Total Mass 575.00 kg
Length 0.30 m
Diameter 4.10 m
Span 29.00 m
Shape Box + pan
Manufacturer SPXS
Bus Type Starlink V2MO
Phase Status In Orbit
Owner/State SPXS/US

Large Constellations

Loading constellations...